Location: Cortina d'Ampezzo
(46.5405°N, 12.1357°E)
Time: 17:21:41
(UTC+01:00)

BlueWalker 3 - Visible Passes

Search period start: 22 January 2026 00:00
Search period end: 01 February 2026 00:00
Orbit: 451 x 462 km, 53.2° (Epoch: 22 January)

Date Brightness Start Highest point End Pass type
(mag) Time Alt. Az. Time Alt. Az. Time Alt. Az.
22 Jan 3.4 17:47:11 10° S 17:49:50 20° SE 17:52:13 11° E visible
22 Jan 2.8 19:23:26 10° WSW 19:25:58 43° W 19:25:58 43° W visible
23 Jan 1.6 18:47:58 10° WSW 18:51:32 89° NNW 18:52:09 59° ENE visible
24 Jan 1.7 18:12:33 10° SW 18:16:05 74° SSE 18:18:16 22° ENE visible
24 Jan 4.2 19:50:33 10° W 19:52:01 20° WNW 19:52:01 20° WNW visible
25 Jan 2.0 17:37:08 10° SW 17:40:38 58° SE 17:44:08 10° ENE visible
25 Jan 2.9 19:14:56 10° W 19:18:03 36° NNW 19:18:03 36° NNW visible
26 Jan 2.6 18:39:19 10° W 18:42:43 41° NNW 18:44:03 28° NNE visible
26 Jan 5.1 20:17:44 10° WNW 20:17:47 10° WNW 20:17:47 10° WNW visible
27 Jan 2.4 18:03:42 10° W 18:07:10 47° NNW 18:10:00 14° NE visible
27 Jan 4.0 19:42:07 10° WNW 19:43:44 20° NW 19:43:44 20° NW visible
28 Jan 3.1 19:06:30 10° WNW 19:09:36 27° N 19:09:40 27° N visible
29 Jan 3.1 18:30:50 10° WNW 18:33:59 28° N 18:35:34 20° NE visible
29 Jan 4.8 20:08:52 10° NW 20:09:18 13° NW 20:09:18 13° NW visible
30 Jan 3.0 17:55:09 10° WNW 17:58:21 30° N 18:01:28 10° NE visible
30 Jan 3.7 19:33:18 10° NW 19:35:11 23° NNW 19:35:11 23° NNW visible
31 Jan 2.9 18:57:42 10° NW 19:00:52 29° N 19:01:05 28° NNE visible
